shoulder
new_line
new_line
first
second
third
Al di la della Luna; Beyond the Moon; Astrophotography; Astrofotografia; Danilo Pivato
 
 
         
         
2010

Orbital Elements

Epoch 2010 Feb. 13.0 TT = JDT 2455240.5
T 2010 Feb. 4.81810 TT                                                              MPC
q   1.6956406              (2000.0)                          P                      Q
z  +0.0272064           Peri.   333.10727    +0.07170146     -0.72053364
 +/-0.0000046           Node   254.81327    -0.73714381      -0.50410086
e   0.9538676             Incl.  134.38458     -0.67192105     +0.47614450
 
 
         
         
2010.05.09
 
         
         
   
   
   
Dear friend Andrea Boattini, the famous prolific discoverer of minor planets and comets & me (2010.february)
   
       
         
         
         
         
         

 

       
 
Since: 01/01/2004
 
           
Since: 01/11/2010